Simultaneous Nadir Overpasses (SNOs) Predictions

Prediction of SNOs between GOES-15 and TERRA Satellite Orbit:

Table of predicted SNOs for the next 14.0 days since TLE Epoch: 8/19/2023
Index Date Time (GOES-15) GOES-15 Lat,Lon TERRA Lat,Lon Distance(km) Time Diff (sec)
1 08/21/2023 12:38:54 0.18, 139.48 0.43, 140.58 126.00 80
2 08/22/2023 01:01:46 -0.22, 138.87 0.49, 135.66 366.11 80
3 08/24/2023 00:42:50 -0.18, 136.82 -0.78, 139.52 307.71 80
4 08/24/2023 13:05:51 0.22, 136.36 -0.13, 134.56 204.57 80
5 08/26/2023 12:46:53 0.18, 134.31 1.03, 138.45 469.50 80
6 08/27/2023 01:09:47 -0.22, 133.70 -0.20, 133.50 22.38 80
7 08/29/2023 13:11:10 0.22, 131.19 0.48, 132.42 140.59 80
8 08/30/2023 01:34:03 -0.25, 130.57 0.41, 127.49 350.78 80
9 09/01/2023 01:15:05 -0.23, 128.50 -0.81, 131.37 325.83 80
10 09/01/2023 13:38:05 0.26, 128.03 -0.09, 126.41 185.36 80
